STARLINK-1639 (46135 NORAD) Tracking and Keplerian Element Data

This shows tracking and keplerian element data for the satellite.

Feedback or suggestion? Click here.




ElementValue
Catalog46135
NameSTARLINK-1639
Epoch Orbit179
Epoch Day338.66668981
Epoch Year2020
RAAN275.6747
Inclination52.9977
Eccentricity0.0002493
Argument of Perigee18.3057
Mean Anonmoly2.9473
Mean Motion15.62759852
Decay Rate-8.07E-05
L11 46135U 20057U 20338.66668981 -.00008070 00000-0 -82335-4 0 9991
L22 46135 52.9977 275.6747 0002493 18.3057 2.9473 15.62759852 1792

Live tracking and technical data element details for STARLINK-1639 (NORAD 46135). STARLINK-1639 can be tracked NOW for your location showing map with azimuth and elevation plus other details from your city location.

Track the satellite on the map from your city or location and see movement details for azimuth, elevation, latitude, longitude, range, height, and movement on the map or in text.







IsCatalogInMostPopularTable: catalog: 46135, numindb: 16
Update: records affected: 1



GetName: 46135 STARLINK-1639

Hit Count: updated at: Sat, 05 Dec 2020 05:43:00 GMT